Tracking 30009 objects as of 7-Dec-2024
HD Live streaming from Space Station
objects crossing your sky now

STARLINK-31150

Track STARLINK-31150 now!
10-day predictions
STARLINK-31150 is classified as:


NORAD ID: 58730
Int'l Code: 2024-005C
Perigee: 450.5 km
Apogee: 451.9 km
Inclination: 43.0 °
Period: 93.5 minutes
Semi major axis: 6822 km
RCS: Unknown
Launch date: January 7, 2024
Source: United States (US)
Launch site: AIR FORCE EASTERN TEST RANGE (AFETR)
Your satellite tracking list
Your tracking list is empty




NASA's NSSDC Master Catalog

Two Line Element Set (TLE):
1 58730U 24005C   24341.94841680 -.00001520  00000-0 -29146-4 0  9994
2 58730  42.9989  68.5109 0000997 270.0268  90.0474 15.40702449 52967
Source of the keplerian elements: AFSPC